Lapse_Rate
1.7 1.5 1.6 1.8 2.3 1.2 1.7 3.4 6.5 4.2 4.4 6.3 6.5 6.5 6.5 6.5 6.6 7.1 6.5 6.5 6.5 6.5 6.5 6.5 6.5 6.5 6.5 6.9 6.7 6.5 6.5 6.5 6.5 6.5 6.5 6.5 6.5 6.5 6.5 6.5 6.5 6.5 6.5 6.5
1.5 1.4 1.6 1.7 1.5 1.5 1.9 4.2 5.4 5.1 5.2 6.5 6.5 6.5 6.5 6.7 6.5 6.5 6.5 6.5 6.5 6.5 6.5 6.5 6.5 6.5 6.7 7.0 6.5 6.5 6.5 6.5 6.5 6.5 6.5 6.5 6.5 6.5 6.5 6.5 6.5 6.5 6.5 6.5
1.6 1.6 1.4 1.2 1.2 1.3 0.6 3.3 6.5 5.5 6.0 6.0 6.5 6.5 6.5 6.5 6.9 6.5 6.7 6.5 6.6 6.5 6.5 6.5 6.5 6.5 6.5 7.0 6.8 6.7 6.7 6.5 6.5 6.5 6.5 6.5 6.5 6.5 6.5 6.5 6.5 6.5 6.5 6.5
1.4 1.8 1.5 1.2 1.5 1.0 2.5 4.7 6.4 6.4 6.5 6.5 6.5 6.5 6.5 6.5 6.5 6.7 6.7 6.5 6.5 6.5 6.5 6.5 6.5 6.5 6.5 6.7 6.8 6.7 6.5 6.5 6.5 6.5 6.5 6.5 6.5 6.5 6.5 6.5 6.5 6.5 6.5 6.5
1.4 1.1 1.2 1.3 1.0 0.7 2.3 3.9 5.9 6.1 6.7 6.7 6.5 6.5 6.5 6.5 6.5 6.5 6.5 6.5 6.5 6.5 6.5 6.5 6.5 6.5 6.5 6.5 6.5 6.5 6.5 6.5 6.5 6.5 6.5 6.5 6.5 6.5 6.5 6.5 6.5 6.5 6.5 6.5
0.8 1.1 1.1 0.2 0.4 2.2 2.7 4.4 5.1 5.4 6.6 6.5 6.5 6.5 6.5 6.5 6.5 6.7 6.7 6.6 6.5 6.5 6.5 6.9 7.1 7.1 6.9 6.6 6.5 6.5 6.5 6.5 6.5 6.5 6.5 6.5 6.5 6.5 6.5 6.5 6.5 6.5 6.5 6.5
-0.1 0.0 0.1 1.0 2.2 2.7 2.3 2.8 4.7 5.9 6.5 6.5 6.5 6.5 6.6 6.5 6.5 6.5 6.8 7.0 6.5 7.1 8.1 7.8 7.5 7.2 7.0 6.8 6.5 6.7 6.5 6.5 6.5 6.5 6.5 6.5 6.5 6.5 6.5 6.5 6.5 6.5 6.5 6.5
0.8 1.0 2.4 3.0 3.2 3.3 3.9 4.2 5.0 6.4 6.5 6.6 6.6 6.5 6.5 6.8 6.9 6.6 6.7 7.2 7.8 8.1 7.3 6.5 6.5 6.5 6.5 6.5 6.5 6.5 6.5 6.5 6.5 6.5 6.5 6.5 6.5 6.5 6.5 6.5 6.5 6.5 6.5 6.5
3.3 3.7 4.4 4.5 4.9 5.3 5.4 4.6 6.4 7.7 6.6 6.6 7.3 6.6 6.9 6.5 6.5 6.5 6.8 7.8 8.3 7.8 6.5 6.5 6.5 6.5 6.5 6.5 6.5 6.5 6.5 6.5 6.5 6.5 6.5 6.5 6.5 6.5 6.9 6.5 6.5 6.5 6.6 6.5
4.4 4.6 4.7 4.9 5.3 6.4 7.7 7.6 7.0 8.2 6.7 7.6 7.5 6.6 6.6 7.2 6.8 6.5 6.7 7.0 7.0 7.6 6.5 6.5 6.5 6.5 6.5 6.5 6.5 6.5 6.5 6.5 6.5 6.5 6.5 6.5 6.5 6.6 7.1 6.5 6.5 6.6 6.9 6.9
4.9 4.9 5.1 5.4 5.6 6.6 8.3 6.6 7.1 7.6 7.4 7.8 8.1 8.1 7.3 7.2 7.1 6.5 6.8 6.8 6.9 6.6 6.5 6.5 6.5 6.5 6.5 6.5 6.5 6.5 6.5 6.5 6.5 6.5 6.5 6.5 6.8 6.7 6.5 6.5 6.7 7.1 7.2 7.1
4.9 5.0 5.2 5.5 6.0 6.5 7.9 7.6 7.6 8.1 8.0 7.9 8.8 8.8 9.0 8.4 8.2 7.4 7.4 6.9 6.8 6.9 6.5 6.5 6.5 6.5 6.5 6.5 6.5 6.5 6.5 6.5 6.5 6.5 6.5 6.6 6.9 6.1 7.0 7.3 6.4 7.1 7.2 6.9
5.3 5.5 5.6 6.0 6.6 7.9 8.5 8.3 8.4 8.7 8.0 7.9 8.0 7.8 8.9 8.8 8.7 9.3 7.0 7.5 7.8 7.4 7.8 6.7 6.5 6.5 6.5 6.5 6.5 6.5 6.5 6.7 6.5 6.5 6.5 6.5 6.8 7.4 7.5 7.7 7.5 7.8 6.8 7.2
5.8 5.8 5.9 6.2 6.7 8.0 9.4 9.1 9.1 8.9 8.2 6.6 7.3 9.3 8.6 9.6 9.5 9.2 9.0 8.4 8.5 8.2 7.9 6.8 6.5 6.5 6.8 6.5 6.5 6.5 6.6 6.5 6.5 6.5 6.5 6.8 7.1 7.4 7.6 7.7 7.9 7.7 8.0 8.1
6.4 6.4 6.4 6.7 7.0 8.3 9.7 9.8 9.7 9.2 8.1 6.7 7.2 8.6 9.0 9.3 9.2 8.8 8.9 8.5 8.0 7.7 6.9 6.5 6.5 6.8 6.6 6.6 6.5 6.5 6.7 6.5 6.5 6.5 6.8 6.4 6.8 7.6 7.9 7.5 7.6 7.8 7.9 7.9
6.7 6.6 6.6 6.6 6.5 6.0 9.3 7.3 9.6 9.7 9.4 7.5 6.5 8.4 8.3 8.8 8.9 8.6 8.4 8.4 8.1 7.8 7.1 6.7 7.1 7.6 6.7 6.5 6.5 6.6 7.2 7.5 7.5 6.7 7.6 7.5 7.6 7.9 8.1 7.4 8.0 8.1 8.0 8.2
6.8 6.4 6.3 6.3 6.7 8.5 8.3 7.6 8.3 7.2 9.3 7.6 6.6 6.7 8.2 8.7 8.5 8.3 8.2 8.4 8.0 7.7 7.2 6.8 6.9 7.1 6.9 6.5 6.5 6.7 7.3 7.6 7.7 7.9 6.4 6.6 7.4 6.9 7.3 8.1 8.2 8.4 8.4 8.3
6.5 6.5 6.4 6.3 6.0 6.0 8.7 7.8 7.9 6.5 8.7 8.2 6.5 6.5 7.0 8.5 7.3 6.9 7.5 7.4 7.7 7.5 7.2 7.2 6.7 7.0 6.8 6.5 6.6 7.2 7.5 7.6 7.6 7.7 7.9 6.5 7.5 8.2 8.1 8.3 8.2 8.0 7.9 8.1
6.7 6.5 6.4 8.6 8.9 8.3 8.8 6.4 7.1 9.0 8.5 6.8 6.7 6.5 6.5 8.2 7.4 7.6 7.5 7.6 6.5 7.6 6.5 6.6 6.9 6.5 6.5 6.5 6.8 7.1 7.3 7.3 7.2 7.8 7.9 7.9 7.7 7.8 7.9 8.0 8.0 7.8 7.8 8.0
6.1 8.4 8.4 6.2 8.7 5.6 7.2 8.6 7.9 7.7 7.5 7.9 6.6 7.4 6.5 7.4 7.1 6.7 6.7 7.1 6.5 6.5 6.6 7.2 6.5 6.5 7.2 7.5 7.6 7.7 7.8 7.9 8.0 7.3 7.1 7.5 7.5 7.6 7.7 7.8 8.0 8.1 8.0 8.1
9.1 8.2 7.8 9.2 6.6 8.7 7.8 6.9 6.7 7.0 6.5 7.4 7.3 7.2 6.6 7.9 6.5 6.5 7.1 6.5 6.5 6.5 6.5 6.5 6.5 6.5 6.5 7.6 7.7 8.0 8.1 8.2 8.1 8.1 8.1 8.1 8.0 7.8 7.8 7.9 8.1 8.1 8.3 7.9
8.0 8.8 8.8 9.0 7.9 7.3 6.6 6.5 6.7 6.5 6.5 7.0 6.7 7.0 7.3 7.4 7.9 6.7 6.8 6.5 6.5 6.5 6.7 6.5 6.5 6.5 7.2 7.5 7.7 7.9 8.0 8.1 8.1 8.2 8.1 8.2 8.3 8.4 8.3 8.2 8.2 8.2 8.4 7.6
9.0 8.1 7.5 7.2 7.2 6.5 6.5 6.5 6.5 6.5 6.8 7.1 7.1 6.6 7.2 7.2 7.6 6.7 6.5 6.5 6.5 6.7 6.5 6.5 6.5 6.9 7.6 7.7 7.8 7.9 8.2 8.3 8.2 8.2 8.4 8.5 8.4 8.5 8.3 8.2 8.4 7.4 7.4 7.7
7.6 7.0 6.5 6.5 6.5 6.5 6.5 6.5 6.5 7.1 7.2 7.2 7.2 6.9 6.7 7.1 6.6 6.5 6.5 6.5 6.5 6.5 6.5 6.5 6.5 7.0 6.9 7.6 7.8 7.7 7.7 7.8 7.8 8.1 7.8 6.8 7.2 6.5 6.2 7.4 6.7 7.4 7.7 7.9
7.2 7.1 6.5 6.5 7.0 7.2 7.2 7.5 7.3 7.6 7.9 7.5 7.1 7.0 7.0 6.5 6.5 6.5 6.5 6.5 6.5 6.5 6.5 6.5 6.8 7.3 7.6 7.7 7.8 7.8 7.2 7.1 7.5 7.6 7.5 6.8 6.6 6.6 6.4 6.4 5.6 7.0 6.8 6.3
7.6 7.4 6.6 7.0 6.7 6.6 6.9 7.0 7.1 8.0 7.7 7.7 7.4 6.5 6.5 6.5 6.5 6.5 6.5 6.5 6.5 6.5 6.5 7.1 7.3 6.9 6.6 7.5 7.1 7.5 7.4 7.1 8.0 8.2 8.2 8.2 7.2 6.9 8.2 7.4 7.0 5.9 6.6 6.1
7.2 6.8 7.6 7.2 7.0 6.8 7.0 6.9 7.5 8.2 7.4 6.5 6.6 6.5 6.5 6.5 6.5 6.5 6.5 6.5 6.5 6.8 7.2 7.6 7.8 7.4 7.4 7.3 7.2 7.1 7.9 8.1 8.2 8.4 8.4 8.4 8.4 8.4 8.5 8.2 8.5 8.4 8.2 7.2
Wind_Speed
23 22 23 22 21 20 10 3 3 1 3 3 2 5 6 2 8 2 3 3 6 5 3 4 6 8 5 3 4 4 1 4 9 17 19 20 18 18 17 7 6 6 5 10
25 25 25 22 22 29 5 4 3 2 1 4 5 3 4 5 7 8 7 8 9 6 6 5 11 8 5 6 6 1 4 3 6 9 2 5 4 9 8 8 11 16 12 13
25 25 25 19 31 23 5 4 4 1 2 1 3 7 5 5 5 3 5 3 5 4 6 10 4 5 8 5 2 8 3 5 10 11 16 15 16 18 17 15 11 15 18 23
20 19 17 23 30 26 4 1 3 1 6 6 4 7 4 5 6 7 8 4 10 7 5 8 7 8 6 8 9 5 4 8 12 18 18 17 19 19 18 19 20 20 22 26
17 17 17 23 29 19 3 5 3 2 2 5 11 7 6 8 5 8 5 6 9 14 5 9 3 7 8 9 9 15 13 14 15 18 16 16 20 19 21 22 24 24 19 17
18 19 25 30 28 12 3 2 1 2 7 4 5 4 10 9 8 7 5 11 4 5 7 9 11 10 10 11 11 12 14 11 12 17 16 17 16 13 20 24 16 16 12 14
27 25 24 22 16 7 3 3 3 3 3 4 5 3 9 7 9 4 3 2 1 1 2 5 7 10 13 15 16 14 16 15 11 13 16 17 15 20 21 9 11 13 12 15
28 26 23 19 15 9 5 3 3 2 3 4 7 9 5 8 6 3 4 6 7 3 3 2 5 7 13 20 21 18 16 14 11 13 15 19 24 19 6 11 15 13 13 17
25 25 21 19 19 16 6 2 1 2 4 6 8 9 8 5 6 7 6 10 6 3 1 2 4 4 9 6 7 19 19 16 11 13 15 17 19 13 7 13 12 13 11 14
23 22 19 16 14 6 4 4 4 2 1 6 5 4 7 4 6 6 10 7 2 2 2 5 8 12 15 16 19 16 11 7 12 12 10 11 5 14 11 5 8 17 13 13
23 21 20 17 17 16 5 4 5 3 2 7 7 5 4 4 1 3 6 5 4 4 4 5 8 9 12 12 12 10 12 10 10 10 12 10 12 8 3 5 9 13 14 14
24 22 19 17 14 9 2 4 1 3 5 4 5 7 8 10 9 3 4 3 1 4 4 3 4 7 7 10 9 12 11 9 7 7 8 14 8 5 9 4 5 10 16 19
22 20 20 18 14 15 9 6 3 1 4 5 4 4 5 2 3 5 2 4 4 3 3 3 4 8 8 9 10 13 10 15 7 11 11 12 12 12 10 8 10 15 18 15
21 20 19 16 12 9 9 6 4 2 1 3 4 4 5 3 1 2 5 5 3 4 4 4 5 8 6 9 13 13 11 12 12 12 9 11 10 6 9 13 17 17 15 12
21 19 17 12 11 12 12 7 7 6 2 2 6 5 4 1 2 2 3 4 5 6 5 5 7 8 8 9 11 11 12 9 5 7 13 8 10 10 10 14 16 12 12 13
18 15 12 10 13 12 2 3 7 10 5 2 2 5 4 3 2 3 5 5 5 6 6 6 4 10 5 4 7 13 10 12 8 4 9 10 12 11 12 9 10 10 11 10
16 14 12 11 8 7 4 4 4 10 5 0 2 6 4 3 1 2 3 4 4 5 5 5 9 9 4 5 12 18 15 11 6 5 8 7 6 2 7 8 9 10 10 9
15 11 9 10 12 12 8 6 9 12 3 2 0 2 5 0 1 1 3 2 2 3 4 4 6 6 5 5 10 7 5 4 4 6 4 5 6 5 7 7 8 9 9 9
13 10 4 3 2 4 4 4 6 6 2 3 0 2 3 3 1 1 2 2 3 4 4 5 4 5 7 10 9 8 1 2 2 4 5 3 5 6 8 8 9 10 10 9
7 2 4 3 4 3 1 2 3 2 3 1 2 1 1 0 1 2 2 4 3 3 7 3 4 8 16 16 7 1 5 5 4 3 4 6 6 7 8 9 7 7 6 8
1 3 3 5 3 1 2 1 2 2 3 4 3 2 2 1 2 2 3 2 3 3 3 4 3 4 4 7 7 7 7 4 3 2 2 3 4 5 6 8 6 7 11 10
4 3 4 1 1 1 1 2 2 4 1 2 1 2 1 1 1 2 3 3 3 5 5 3 3 3 11 9 9 7 5 1 1 1 1 3 7 7 6 8 8 9 10 8
1 2 2 1 2 2 3 4 3 2 3 1 1 3 1 1 2 3 3 4 5 2 3 3 2 8 8 8 5 2 1 2 3 3 4 6 6 9 9 9 9 9 8 8
1 2 2 3 4 4 2 3 3 3 0 2 2 3 3 2 3 3 4 5 4 4 4 0 3 6 7 4 2 0 3 5 5 8 7 5 7 7 6 5 4 5 7 9
2 3 3 5 4 1 2 3 3 3 3 3 4 3 3 3 4 3 4 4 4 4 3 2 2 3 3 0 2 4 4 4 5 6 6 4 4 3 6 6 5 7 5 6
2 4 3 4 3 4 3 4 5 7 5 3 2 3 3 5 3 5 6 4 3 3 3 5 5 4 2 3 3 4 5 5 7 6 6 6 2 5 8 9 8 1 5 5
3 2 3 4 3 4 2 2 6 8 4 2 3 4 6 3 4 4 3 4 2 2 3 3 4 4 4 4 3 1 5 7 7 7 7 8 8 8 9 10 6 4 7 6
Wind_Direction
208 210 209 209 211 161 142 133 184 155 182 136 204 224 194 162 207 155 198 204 226 235 248 232 242 238 236 182 182 222 90 293 270 273 281 280 287 282 279 262 282 271 293 264
210 208 210 209 169 154 136 121 113 358 327 192 200 239 257 234 196 206 188 212 217 215 203 230 240 241 148 174 212 261 137 232 303 293 207 4 332 332 262 280 284 274 280 277
218 215 213 199 174 159 100 138 138 130 187 1 215 178 212 209 233 230 197 209 154 178 217 226 259 222 186 189 208 75 11 253 248 260 281 312 295 285 280 284 279 282 270 290
221 216 198 171 171 152 103 121 185 209 181 210 189 182 172 183 191 219 213 204 208 190 223 223 222 219 193 227 168 201 228 260 260 269 280 289 288 286 289 284 280 273 282 275
201 191 184 168 155 130 89 136 151 80 103 114 179 180 199 193 167 173 199 230 212 223 211 210 196 240 237 251 214 227 224 254 267 270 271 276 277 277 271 272 273 276 296 301
140 139 145 142 148 120 124 136 30 134 148 152 158 204 208 206 154 204 214 213 205 237 236 273 277 285 273 266 262 258 263 264 259 267 279 284 280 267 272 275 297 294 319 325
118 120 123 138 139 110 112 148 134 110 166 172 186 196 190 187 181 152 178 239 276 22 351 321 294 277 273 269 262 260 263 260 262 268 276 265 270 269 281 343 291 350 2 347
113 108 108 113 109 103 109 147 110 141 137 161 168 163 158 142 159 173 183 207 90 150 53 346 293 263 249 248 244 239 238 249 258 262 260 277 284 293 0 328 304 51 357 335
104 105 106 101 104 110 98 69 160 166 131 191 167 171 179 181 187 195 157 74 67 62 298 181 239 255 310 289 318 222 226 216 229 247 258 267 272 22 333 315 281 12 349 331
112 113 110 93 75 58 109 89 356 229 166 65 32 162 196 210 194 203 186 133 131 205 224 243 259 267 272 279 278 275 273 260 229 244 254 272 333 334 333 303 330 331 325 332
108 100 93 84 70 58 99 76 23 335 96 55 42 19 45 32 26 200 115 145 199 182 225 264 278 271 277 290 290 291 286 297 291 269 260 282 15 12 17 309 309 312 314 319
99 94 90 82 71 56 32 107 8 347 67 76 40 43 27 22 28 350 121 221 115 206 219 255 314 307 305 295 289 293 290 287 300 283 282 296 326 168 251 21 302 302 320 303
95 93 89 83 73 71 83 101 119 133 105 126 131 94 100 53 15 0 279 208 278 231 300 291 294 292 305 298 297 323 315 303 289 308 295 311 320 312 358 347 304 320 294 296
98 89 82 74 61 67 91 79 30 115 84 107 112 139 103 44 202 250 285 324 296 331 296 263 270 278 297 293 290 287 289 289 278 279 287 290 296 338 315 315 305 297 300 315
94 86 78 65 37 43 85 78 57 30 358 97 122 144 61 104 178 235 238 252 265 268 248 265 260 284 293 287 280 273 283 301 287 281 283 283 293 301 315 291 290 298 322 322
102 94 82 50 24 354 107 61 54 16 353 52 141 125 148 122 185 215 232 241 236 254 271 273 267 267 288 274 271 292 301 278 282 325 354 329 308 305 306 291 318 326 318 324
103 86 68 33 8 37 51 60 33 349 306 144 213 141 138 151 223 216 242 216 255 251 260 258 262 273 252 259 268 280 285 304 304 359 7 328 323 333 319 350 331 326 314 359
105 103 78 62 74 117 84 46 15 334 300 296 246 121 150 194 311 181 335 223 265 261 247 271 265 267 222 255 261 281 279 315 309 302 293 234 285 336 360 348 336 333 344 343
110 106 122 183 29 34 51 31 349 331 338 327 38 304 64 181 165 191 190 199 233 225 219 221 225 231 221 238 259 286 46 188 262 336 347 348 7 8 360 339 343 339 339 341
130 222 54 43 48 130 254 31 32 14 327 310 263 349 62 330 183 233 216 194 240 247 214 191 216 248 248 252 279 86 88 53 45 24 24 10 357 358 350 342 337 327 328 331
315 62 65 83 82 14 23 26 277 174 207 201 242 46 346 96 273 311 236 261 246 258 161 217 230 255 176 150 118 101 88 92 96 78 58 6 317 314 318 311 327 353 353 9
34 79 86 114 224 149 297 223 187 247 85 146 67 78 346 235 219 249 250 243 246 255 148 238 253 42 127 121 113 119 123 187 127 249 299 301 300 303 324 340 347 7 344 354
33 75 89 256 114 212 235 177 216 149 131 108 24 310 296 182 266 255 267 242 237 249 221 235 31 134 110 102 82 44 174 265 286 296 285 276 295 347 354 330 339 337 327 334
72 154 176 228 159 247 236 9 15 87 47 313 274 254 231 232 217 234 258 244 265 249 239 49 52 37 64 86 110 320 329 15 356 333 360 6 342 323 314 300 303 302 310 320
200 193 227 213 246 322 348 353 305 282 276 272 285 265 229 232 244 236 257 247 254 248 22 107 137 177 166 56 7 350 29 359 341 329 316 307 271 301 301 273 267 274 285 281
251 224 246 264 265 259 262 271 273 279 282 292 251 256 267 228 231 223 228 255 274 62 31 23 14 12 39 50 44 14 336 323 308 304 309 306 313 279 296 293 274 237 270 283
252 233 261 309 298 285 292 207 262 283 272 258 268 238 229 237 243 247 285 329 46 357 348 358 10 355 27 13 10 349 311 310 304 309 321 316 298 290 290 297 315 342 334 304